Weather History for Lee's Summit, MO

Change the Weather History Date:

Saturday, March 30, 2013

  Actual Average (KMKC) Record (KMKC)
Temperature  
Mean Temperature 56 °F -  
Max Temperature 64 °F 59 °F 78 °F (2012)
Min Temperature 50 °F 40 °F 27 °F (2003)
Degree Days  
Heating Degree Days 8    
Growing Degree Days 6 (Base 50)    
Moisture  
Dew Point 48 °F    
Average Humidity 81    
Maximum Humidity 96    
Minimum Humidity 61    
Precipitation  
Precipitation 0.02 in - - ()
Sea Level Pressure  
Sea Level Pressure 29.95 in    
Wind  
Wind Speed 7 mph (SE)    
Max Wind Speed 13 mph    
Max Gust Speed 23 mph    
Visibility 8 miles    
Events Fog    
Averages and records for this station are not official NWS values.
T = Trace of Precipitation, MM = Missing Value Source: NWS Daily Summary

Daily Weather History Graph

Daily Weather History Graph

Search for Another Location

Airport:

Trip Planner

Search our weather history database for the weather conditions in past years. The results will help you decide how hot, cold, wet, or windy it might be!

Date:

Astronomy

Mar. 30, 2013 Rise Set
Actual Time 7:04 AM CDT 7:39 PM CDT
Civil Twilight 6:37 AM CDT 8:06 PM CDT
Nautical Twilight 6:06 AM CDT 8:38 PM CDT
Astronomical Twilight 5:33 AM CDT 9:10 PM CDT
Moon 11:44 PM CDT (3/30) 9:02 AM CDT (3/30)
Length of Visible Light 13h 28m
Length of Day
12h 34m
Waning Gibbous, 86% of the Moon is Illuminated
Mar 30
Waning Gibbous
Apr 2
Last Quarter
Apr 10
New
Apr 18
First Quarter
Apr 25
Full

Hourly Weather History & Observations

Time (CDT) Temp. Dew Point Humidity Pressure Visibility Wind Dir Wind Speed Gust Speed Precip Events Conditions
12:53 AM 50.0 °F 37.0 °F 61% 30.10 in 10.0 mi ESE 6.9 mph - N/A   Clear
1:53 AM 50.0 °F 37.9 °F 63% 30.10 in 10.0 mi SE 5.8 mph - N/A   Clear
2:53 AM 51.1 °F 39.9 °F 66% 30.07 in 10.0 mi SE 8.1 mph - N/A   Partly Cloudy
3:53 AM 52.0 °F 42.1 °F 69% 30.04 in 10.0 mi SE 6.9 mph - N/A   Partly Cloudy
4:53 AM 50.0 °F 42.1 °F 74% 30.02 in 10.0 mi ESE 5.8 mph - N/A   Partly Cloudy
5:53 AM 51.1 °F 43.0 °F 74% 29.99 in 10.0 mi SE 8.1 mph - N/A   Partly Cloudy
6:07 AM 51.8 °F 44.6 °F 76% 30.00 in 10.0 mi SE 8.1 mph - N/A   Mostly Cloudy
6:53 AM 52.0 °F 45.0 °F 77% 29.98 in 10.0 mi SSE 9.2 mph - N/A   Overcast
7:02 AM 51.8 °F 44.6 °F 76% 29.98 in 10.0 mi SE 9.2 mph - N/A   Overcast
7:13 AM 51.8 °F 44.6 °F 76% 29.98 in 10.0 mi SSE 8.1 mph 18.4 mph N/A   Overcast
7:35 AM 51.8 °F 46.4 °F 82% 29.97 in 10.0 mi SSE 11.5 mph 18.4 mph N/A   Overcast
7:53 AM 52.0 °F 46.0 °F 80% 29.98 in 10.0 mi SSE 9.2 mph - N/A   Overcast
8:37 AM 51.8 °F 46.4 °F 82% 29.96 in 10.0 mi SSE 11.5 mph 23.0 mph 0.00 in   Overcast
8:53 AM 51.1 °F 46.9 °F 86% 29.95 in 10.0 mi SSE 12.7 mph 20.7 mph 0.00 in   Overcast
9:03 AM 51.8 °F 48.2 °F 88% 29.94 in 10.0 mi SSE 11.5 mph 21.9 mph N/A   Mostly Cloudy
9:23 AM 51.8 °F 48.2 °F 88% 29.95 in 10.0 mi Variable 5.8 mph - N/A   Mostly Cloudy
9:53 AM 52.0 °F 48.0 °F 86% 29.96 in 9.0 mi SE 8.1 mph - N/A   Overcast
10:53 AM 52.0 °F 48.9 °F 89% 29.96 in 8.0 mi SE 8.1 mph - N/A   Overcast
11:53 AM 52.0 °F 48.9 °F 89% 29.98 in 8.0 mi ESE 5.8 mph - N/A   Overcast
12:53 PM 54.0 °F 52.0 °F 93% 29.96 in 6.0 mi ESE 6.9 mph - 0.01 in   Overcast
1:53 PM 55.9 °F 52.0 °F 87% 29.94 in 9.0 mi SE 5.8 mph - 0.00 in   Overcast
2:03 PM 57.2 °F 51.8 °F 82% 29.93 in 10.0 mi SE 4.6 mph - N/A   Overcast
2:22 PM 57.2 °F 53.6 °F 88% 29.92 in 10.0 mi SSE 5.8 mph - N/A   Overcast
2:53 PM 60.1 °F 53.1 °F 78% 29.89 in 10.0 mi South 6.9 mph - 0.01 in   Mostly Cloudy
3:53 PM 63.0 °F 52.0 °F 67% 29.88 in 10.0 mi SSW 4.6 mph - N/A   Overcast
4:53 PM 63.0 °F 52.0 °F 67% 29.88 in 10.0 mi West 4.6 mph - N/A   Overcast
5:01 PM 62.6 °F 51.8 °F 68% 29.87 in 10.0 mi SW 3.5 mph - N/A   Mostly Cloudy
5:37 PM 60.8 °F 51.8 °F 72% 29.88 in 10.0 mi NNE 12.7 mph - N/A   Overcast
5:53 PM 60.1 °F 53.1 °F 78% 29.88 in 10.0 mi NE 10.4 mph - N/A   Overcast
6:04 PM 60.8 °F 53.6 °F 77% 29.88 in 10.0 mi ENE 10.4 mph - N/A   Overcast
6:53 PM 60.1 °F 52.0 °F 75% 29.88 in 10.0 mi ENE 4.6 mph - N/A   Clear
7:53 PM 55.0 °F 51.1 °F 86% 29.89 in 10.0 mi East 4.6 mph - N/A   Clear
8:53 PM 55.0 °F 52.0 °F 89% 29.91 in 10.0 mi SE 4.6 mph - N/A   Clear
9:53 PM 54.0 °F 51.1 °F 90% 29.91 in 8.0 mi SE 4.6 mph - N/A   Scattered Clouds
10:53 PM 53.1 °F 50.0 °F 89% 29.92 in 6.0 mi Calm Calm - N/A   Clear
11:11 PM 51.8 °F 50.0 °F 94% 29.92 in 1.8 mi Calm Calm - N/A   Partly Cloudy
11:27 PM 50.0 °F 48.2 °F 94% 29.92 in 0.5 mi Calm Calm - N/A Fog Fog
11:30 PM 50.0 °F 48.2 °F 94% 29.92 in 0.2 mi Calm Calm - N/A Fog Fog
11:45 PM 50.0 °F 48.2 °F 94% 29.91 in 0.5 mi Calm Calm - N/A Fog Fog
11:53 PM 50.0 °F 48.9 °F 96% 29.92 in 0.2 mi Calm Calm - N/A Fog Fog